Regional Weather Roundup
Issued by NWS

Home | Current Version | Previous Version | Graphics & Text | Print | Product List | Glossary On
Versions: 1 2 3 4 5 6 7 8 9 10 11 12 13 14 15 16 17 18 19 20 21 22 23 24 25 26 27 28 29 30 31 32 33 34 35 36 37 38 39 40 41 42 43 44 45 46 47 48 49 50
000
ASUS43 KLSX 010807
RWRMO

WEATHER SUMMARY FOR MISSOURI
NATIONAL WEATHER SERVICE SPRINGFIELD MO
300 AM CDT WED JUL 01 2015

NOTE: "FAIR" INDICATES FEW OR NO CLOUDS BELOW 12,000 FEET WITH NO
       SIGNIFICANT WEATHER AND/OR OBSTRUCTIONS TO VISIBILITY.
       CURRENT SKY AND/OR WEATHER CONDITIONS ARE NOT AVAILABLE FOR
       CHILLICOTHE AND FARMINGTON.

MOZ001>031-035>038-043-044-053-054-010900-
...NORTHERN AND WESTERN MISSOURI...

CITY           SKY/WX    TMP DP  RH WIND       PRES   REMARKS
KANSAS CTY INT LGT RAIN  69  67  93 SE13      29.87S
KANSAS C DTWN  CLOUDY    71  68  90 E12       29.84F
LEE`S SUMMIT   LGT RAIN  68  66  93 E14       29.88F
ST JOSEPH      RAIN      72  67  84 NW8       29.92R
CHILLICOTHE      N/A     71  68  90 CALM      29.92F
KIRKSVILLE     LGT RAIN  68  66  93 SW6       29.91F FOG

$$
MOZ066>068-077>081-088>096-101>105-010900-
...SOUTHWEST MISSOURI...

CITY           SKY/WX    TMP DP  RH WIND       PRES   REMARKS
SPRINGFIELD    PTCLDY    75  71  87 S9        29.89F
JOPLIN         PTCLDY    79  71  76 SW13      29.88F

$$
MOZ032>034-039>042-045>050-055>058-069>072-010900-
...CENTRAL MISSOURI...

CITY           SKY/WX    TMP DP  RH WIND       PRES   REMARKS
COLUMBIA       CLOUDY    72  70  93 CALM      29.93F FOG
JEFFERSON CITY LGT RAIN  72  67  84 S5        29.92F
ROLLA          CLOUDY    72  70  93 N6        29.94R
SEDALIA        LGT RAIN  73  69  87 SE7       29.93S FOG
WHITEMAN AFB   TSTM      69  67  94 S8        29.92S FOG
WARRENSBURG    TSTM      68  64  88 E8        29.91F
OSAGE BEACH    CLOUDY    73  68  83 NE8       29.91R THUNDER

$$
MOZ051-052-059>065-010900-
...EAST CENTRAL MISSOURI...

CITY           SKY/WX    TMP DP  RH WIND       PRES   REMARKS
ST LOUIS INTL  CLOUDY    76  69  79 W5        29.92R
SPIRIT OF STL  LGT RAIN  72  72 100 SW6       29.91R FOG
ST CHARLES     CLOUDY    73  71  93 CALM      29.89F

$$
MOZ072>076-082>087-097>100-106>115-010900-
...SOUTH CENTRAL AND SOUTHEAST MISSOURI...

CITY           SKY/WX    TMP DP  RH WIND       PRES   REMARKS
CAPE GIRARDEAU CLOUDY    74  71  91 W3        29.90S
FARMINGTON     CLOUDY    72  70  94 CALM      29.97R
POPLAR BLUFF   CLOUDY    76  71  85 S3        29.89
WEST PLAINS    MOCLDY    74  69  85 SW6       29.94F

$$



USA.gov is the U.S. government's official web portal to all federal, state and local government web resources and services.